#timestamp,LO_Frequency,Hit,StdDev 
1576134015.3,286047002.7,N
1576134035.1,286047002.2,N
1576134055.9,286047004.1,N
1576134075.7,286047002.9,N
1576134095.6,286047004.3,N
1576134115.4,286047001.9,N
1576134135.2,286047001.6,N
1576134155.1,286047000.3,N
1576134156.0,286047000.3,N
1576134175.8,286046999.9,N
1576134195.7,286047002.1,N
1576134215.5,286047000.0,N
1576134235.3,286047000.4,N
1576134255.2,286047001.0,N
1576134275.0,286047002.5,N
1576134275.9,286047002.5,N
1576134295.7,286047001.8,N
1576134315.6,286047003.8,N
1576134335.4,286047004.2,N
1576134355.3,286047003.9,N
1576134375.1,286047002.5,N
1576134376.0,286047002.5,N
1576134395.8,286047001.5,N
1576134415.7,286047001.4,N
1576134435.5,286047002.6,N
1576134455.3,286047004.3,N
1576134475.2,286047001.3,N
1576134495.0,286047003.6,N
1576134495.9,286047003.6,N
1576134515.8,286047001.6,N
1576134535.6,286047004.0,Y
1576134555.4,286047002.0,P
1576134575.3,286046999.8,N
1576134595.1,286047002.6,N
1576134615.9,286047000.5,N
1576134635.7,286047000.5,N
1576134655.5,286046999.9,N
1576134675.4,286047000.3,N
1576134695.2,286047000.6,N
1576134715.0,286046998.3,N
1576134715.9,286046998.3,N
1576134735.8,286046998.2,N
1576134755.6,286047001.1,N
1576134775.5,286047000.5,N
1576134795.3,286047001.6,N
1576134815.1,286047002.1,N
1576134835.9,286047000.0,N
1576134855.7,286046996.8,N
1576134875.5,286046996.1,N
1576134895.4,286046996.4,N
1576134915.2,286046995.1,N
1576134935.1,286046995.3,N
1576134936.0,286046995.3,N
1576134955.8,286046997.2,N
1576134975.6,286046996.8,N
1576134995.5,286046998.7,N
1576135015.3,286047000.3,N
1576135035.1,286046999.7,N
1576135055.9,286047000.2,N
1576135075.7,286047000.3,N
1576135095.6,286046999.7,N
1576135115.4,286047002.3,N
1576135135.2,286047002.0,N
1576135155.1,286047002.8,N
1576135156.0,286047002.8,N
1576135175.8,286047004.0,N
1576135195.6,286047002.7,N
1576135215.5,286047000.3,N
1576135235.3,286047002.1,N
1576135255.2,286047000.2,N
1576135275.9,286047000.1,N
1576135295.7,286046999.8,N
1576135315.6,286047000.2,N
1576135335.4,286047003.0,N
1576135355.2,286047003.9,N
1576135375.1,286047002.6,N
1576135376.0,286047002.6,N
1576135395.8,286047000.5,N
1576135415.7,286047000.8,N
1576135435.5,286047000.7,N
1576135455.3,286047000.1,N
1576135475.2,286047000.8,N
1576135495.0,286047002.8,N
1576135495.9,286047002.8,N
1576135515.7,286047000.1,N
1576135535.6,286047002.6,N
1576135555.4,286047003.3,N
1576135575.3,286047003.9,N
1576135595.1,286047002.5,N
1576135596.0,286047002.5,N
1576135615.8,286047002.5,N
1576135635.7,286047002.8,N
1576135655.5,286047000.2,N
1576135675.3,286047001.1,N
1576135695.2,286046998.7,N
1576135715.0,286046998.3,N
1576135715.9,286046998.3,N
1576135735.8,286046996.5,N
1576135755.6,286047001.1,N
1576135775.4,286047002.7,N
1576135795.3,286047001.8,N
1576135815.1,286047002.8,N
1576135835.8,286047002.3,N
1576135855.7,286047002.5,N
1576135875.5,286047004.3,N
1576135895.4,286047001.4,N
1576135915.2,286047003.0,N
1576135935.0,286047003.5,N
1576135935.9,286047003.5,N
1576135955.8,286047001.6,N
1576135975.6,286047003.9,N
1576135995.5,286047004.2,N
1576136015.3,286047001.5,N
1576136035.1,286047002.6,N
1576136055.9,286046999.9,N
1576136075.7,286047002.5,N
1576136095.5,286047001.9,N
1576136115.4,286047003.9,N
1576136135.2,286047003.9,N
1576136155.1,286047003.7,N
1576136156.0,286047003.7,N
1576136175.8,286047006.0,Y
1576136195.6,286047001.8,P
1576136215.5,286047002.4,P
1576136235.3,286047000.0,N
1576136255.1,286047002.1,N
1576136275.9,286047000.4,N
1576136295.7,286047000.7,N
1576136315.6,286046998.6,N
1576136335.4,286046996.6,N
1576136355.2,286046998.6,N
1576136375.1,286046998.5,N
1576136376.0,286046998.5,N
1576136395.8,286046998.4,N
1576136415.6,286046996.5,N
1576136435.5,286046999.3,N
1576136455.3,286046999.5,N
1576136475.2,286046998.5,N
1576136495.9,286046998.2,N
1576136515.7,286046997.3,N
1576136535.6,286046995.6,N
1576136555.4,286046996.2,N
1576136575.2,286046995.4,N
1576136595.1,286046993.3,Y
1576136596.0,286046993.3,P
1576136615.8,286046995.7,N
1576136635.7,286046995.4,N
1576136655.5,286046996.3,N
1576136675.3,286046995.4,N
1576136695.2,286046997.1,N
1576136715.0,286046999.6,N
1576136715.9,286046999.6,N
1576136735.8,286046999.2,N
1576136755.6,286046999.0,N
1576136775.4,286047001.1,N
1576136795.3,286047000.1,N
1576136815.1,286047002.8,N
1576136835.9,286046999.0,N
1576136855.7,286046998.8,N
1576136875.5,286046998.6,N
1576136895.4,286047002.0,N
1576136915.2,286047002.7,N
1576136935.0,286047001.1,N
1576136935.9,286047001.1,N
1576136955.8,286046998.2,N
1576136975.6,286047000.9,N
1576136995.5,286046998.8,N
1576137015.3,286046996.9,N
1576137035.1,286046997.1,N
1576137055.9,286046999.4,N
1576137075.7,286047000.6,N
1576137095.6,286047001.2,N
1576137115.4,286046998.2,N
1576137135.2,286046996.6,N
1576137155.1,286046997.7,N
1576137156.0,286046997.7,N
1576137175.8,286046997.6,N
1576137195.6,286046999.2,N
1576137215.5,286046998.3,N
1576137235.3,286047000.0,N
1576137255.2,286047003.9,N
1576137275.9,286047001.7,N
1576137295.7,286047001.9,N
1576137315.6,286047001.1,N
1576137335.4,286046998.1,N
1576137355.3,286046998.7,N
1576137375.1,286046994.9,N
1576137376.0,286046994.9,N
1576137395.8,286046997.2,N
1576137415.7,286046998.9,N
1576137435.5,286047001.0,N
1576137455.4,286046998.2,N
1576137475.2,286047000.3,N
1576137495.0,286046999.8,N
1576137495.9,286046999.8,N
1576137515.8,286047002.3,N
1576137535.6,286047004.3,N
1576137555.4,286047011.9,Y
1576137575.3,286047003.8,P
1576137595.1,286047003.9,N
